contact:dominique.lefevre@mio.osupytheas.fr, maurice.libes@osupytheas.fr, didier.mallarino@osupytheas.fr
Project:EMSO http://www.emso-fr.org/EMSO-France
Depth: 2436.0 m
Title:EMSO Ligure Ouest : Data MII capteur AQUADOPP
Date,Latitude,Longitude,X_East,Y_North,Z_Up,Amplitude_X,Amplitude_Y,Amplitude_Z,Batterie,SoundSpeed,Heading,Pitch,Roll,Pressure,TIS,Speed,Direction
, degrees North, degrees East, m.s-1, m.s-1,m.s-1, 1, 1, 1, Volt, m.s-1, degree, degree, degree, dbar, degree_C, m.s-1, degree
2022-12-05T00:04:03,42.805,6.029,-0.046,-0.001,-0.046,101.0,101.0,100.0,13.4,1505.2,322.3,-0.8,1.8,2471.096,13.28,0.046,268.8
2022-12-05T00:07:03,42.805,6.029,-0.04,0.033,-0.065,101.0,101.0,100.0,13.3,1505.2,329.7,-0.8,1.9,2471.089,13.28,0.051,309.5
2022-12-05T00:10:03,42.805,6.029,-0.037,0.02,-0.042,101.0,101.0,100.0,13.3,1505.2,326.8,-0.8,1.8,2471.077,13.29,0.042,298.4
2022-12-05T00:13:03,42.805,6.029,-0.041,0.023,-0.052,101.0,102.0,100.0,13.3,1505.2,335.6,-0.8,1.8,2471.1,13.29,0.047,299.3
2022-12-05T00:16:03,42.805,6.029,-0.024,0.024,-0.004,101.0,101.0,100.0,13.4,1505.2,328.5,-0.7,1.8,2471.137,13.29,0.033,315.0
2022-12-05T00:19:03,42.805,6.029,-0.022,0.025,-0.039,101.0,100.0,100.0,13.4,1505.2,330.4,-0.8,1.8,2471.065,13.29,0.033,318.7
2022-12-05T00:22:03,42.805,6.029,-0.025,0.016,-0.038,103.0,102.0,102.0,13.4,1505.2,330.6,-0.8,1.8,2471.073,13.29,0.029,302.6
2022-12-05T00:25:03,42.805,6.029,-0.035,0.017,-0.07,102.0,99.0,101.0,13.3,1505.2,332.4,-0.8,1.8,2471.095,13.29,0.038,295.9
2022-12-05T00:28:03,42.805,6.029,-0.02,0.007,-0.059,101.0,101.0,100.0,13.4,1505.2,325.4,-0.8,1.8,2471.106,13.29,0.021,289.3
2022-12-05T00:31:03,42.805,6.029,-0.04,0.04,-0.04,100.0,101.0,101.0,13.3,1505.2,332.1,-0.7,1.8,2471.093,13.29,0.056,315.0
2022-12-05T00:34:03,42.805,6.029,-0.031,0.009,-0.022,102.0,100.0,100.0,13.3,1505.2,327.6,-0.8,1.8,2471.098,13.29,0.032,286.2
2022-12-05T00:37:03,42.805,6.029,-0.044,0.026,-0.055,101.0,101.0,100.0,13.3,1505.2,325.3,-0.7,1.8,2471.082,13.29,0.051,300.6
2022-12-05T00:40:03,42.805,6.029,-0.028,0.02,-0.02,101.0,101.0,101.0,13.4,1505.2,327.3,-0.7,1.8,2471.1,13.29,0.034,305.5
2022-12-05T00:43:03,42.805,6.029,-0.024,0.016,-0.031,101.0,101.0,100.0,13.4,1505.2,321.4,-0.7,1.8,2471.082,13.29,0.028,303.7
2022-12-05T00:46:03,42.805,6.029,-0.06,0.021,-0.031,101.0,100.0,100.0,13.3,1505.2,317.3,-0.8,1.8,2471.066,13.29,0.063,289.3
2022-12-05T00:49:03,42.805,6.029,-0.041,0.013,-0.043,100.0,101.0,101.0,13.4,1505.2,328.6,-0.7,1.8,2471.1,13.29,0.043,287.6
2022-12-05T00:52:03,42.805,6.029,-0.046,0.03,-0.013,101.0,101.0,100.0,13.4,1505.2,320.6,-0.8,1.8,2471.084,13.29,0.054,303.1
2022-12-05T00:55:03,42.805,6.029,-0.034,0.011,-0.031,102.0,99.0,101.0,13.3,1505.2,317.0,-0.7,1.8,2471.12,13.29,0.035,287.9
2022-12-05T00:58:03,42.805,6.029,-0.03,0.015,-0.078,101.0,99.0,100.0,13.3,1505.2,322.6,-0.8,1.8,2471.082,13.29,0.033,296.6
2022-12-05T01:04:03,42.805,6.029,-0.06,0.042,-0.059,103.0,102.0,101.0,13.4,1505.2,337.0,-0.7,1.8,2471.124,13.28,0.073,305.0
2022-12-05T01:07:03,42.805,6.029,-0.027,0.023,-0.032,100.0,101.0,101.0,13.3,1505.2,324.1,-0.7,1.8,2471.123,13.28,0.035,310.4
2022-12-05T01:10:03,42.805,6.029,-0.048,0.01,-0.047,101.0,101.0,100.0,13.4,1505.2,317.3,-0.7,1.8,2471.103,13.29,0.049,281.8
2022-12-05T01:13:03,42.805,6.029,-0.006,0.014,-0.003,101.0,101.0,101.0,13.3,1505.2,323.7,-0.8,1.9,2471.132,13.29,0.015,336.8
2022-12-05T01:16:03,42.805,6.029,-0.042,0.003,-0.074,101.0,101.0,101.0,13.4,1505.2,319.1,-0.8,1.8,2471.13,13.29,0.042,274.1
2022-12-05T01:19:03,42.805,6.029,-0.042,0.013,-0.047,101.0,99.0,102.0,13.4,1505.2,324.7,-0.8,1.8,2471.126,13.29,0.043,287.2
2022-12-05T01:22:03,42.805,6.029,-0.036,0.023,-0.021,102.0,100.0,100.0,13.4,1505.2,333.7,-0.8,1.8,2471.14,13.29,0.042,302.6
2022-12-05T01:25:03,42.805,6.029,-0.058,0.025,-0.038,102.0,100.0,100.0,13.4,1505.2,328.3,-0.7,1.8,2471.113,13.29,0.063,293.3
2022-12-05T01:28:03,42.805,6.029,-0.014,0.019,-0.015,101.0,101.0,100.0,13.3,1505.2,330.4,-0.7,1.9,2471.068,13.29,0.023,323.6
2022-12-05T01:31:03,42.805,6.029,-0.051,0.021,-0.025,101.0,100.0,102.0,13.4,1505.2,322.9,-0.7,1.8,2471.1,13.29,0.055,292.4
2022-12-05T01:34:03,42.805,6.029,-0.023,0.013,-0.042,101.0,101.0,101.0,13.3,1505.2,332.1,-0.8,1.8,2471.098,13.29,0.026,299.5
2022-12-05T01:37:03,42.805,6.029,-0.038,0.022,-0.049,101.0,101.0,101.0,13.3,1505.2,322.1,-0.8,1.8,2471.124,13.29,0.043,300.1
2022-12-05T01:40:03,42.805,6.029,-0.04,0.016,-0.042,101.0,101.0,100.0,13.4,1505.2,329.9,-0.8,1.8,2471.134,13.29,0.043,291.8
2022-12-05T01:43:03,42.805,6.029,-0.028,0.011,-0.075,101.0,102.0,100.0,13.3,1505.2,329.8,-0.8,1.8,2471.14,13.29,0.03,291.4
2022-12-05T01:46:03,42.805,6.029,-0.037,0.026,-0.016,102.0,101.0,101.0,13.4,1505.2,320.5,-0.7,1.8,2471.116,13.29,0.045,305.1
2022-12-05T01:49:03,42.805,6.029,-0.035,0.007,-0.037,102.0,99.0,99.0,13.3,1505.2,320.6,-0.8,1.8,2471.113,13.29,0.035,281.3
2022-12-05T01:52:03,42.805,6.029,-0.018,0.006,-0.037,102.0,101.0,100.0,13.4,1505.2,323.1,-0.8,1.8,2471.118,13.29,0.018,288.4
2022-12-05T01:55:03,42.805,6.029,-0.047,0.027,-0.038,102.0,101.0,101.0,13.4,1505.2,334.8,-0.7,1.8,2471.152,13.29,0.054,299.9
2022-12-05T01:58:03,42.805,6.029,-0.027,0.02,0.0,101.0,101.0,100.0,13.4,1505.2,320.9,-0.8,1.8,2471.131,13.29,0.033,306.5
2022-12-05T02:04:03,42.805,6.029,-0.039,0.003,-0.035,102.0,100.0,100.0,13.3,1505.2,320.6,-0.7,1.8,2471.179,13.28,0.039,274.4
2022-12-05T02:07:03,42.805,6.029,-0.038,0.04,-0.063,102.0,101.0,100.0,13.3,1505.2,330.1,-0.8,1.9,2471.168,13.28,0.055,316.5
2022-12-05T02:10:03,42.805,6.029,-0.039,0.007,-0.053,100.0,100.0,102.0,13.4,1505.2,321.0,-0.7,1.8,2471.172,13.29,0.039,280.2
2022-12-05T02:13:03,42.805,6.029,-0.017,0.014,-0.013,101.0,101.0,101.0,13.4,1505.2,323.9,-0.8,1.8,2471.154,13.29,0.022,309.5
2022-12-05T02:16:03,42.805,6.029,-0.033,0.033,-0.037,101.0,100.0,101.0,13.3,1505.2,324.7,-0.8,1.8,2471.12,13.29,0.046,315.0
2022-12-05T02:19:03,42.805,6.029,-0.034,0.024,-0.04,101.0,101.0,101.0,13.4,1505.2,320.9,-0.8,1.8,2471.142,13.29,0.041,305.2
2022-12-05T02:22:03,42.805,6.029,-0.042,-0.009,-0.027,101.0,101.0,99.0,13.4,1505.2,321.3,-0.8,1.8,2471.176,13.29,0.042,257.9
2022-12-05T02:25:03,42.805,6.029,-0.038,0.005,-0.044,102.0,102.0,99.0,13.4,1505.2,327.2,-0.8,1.8,2471.167,13.29,0.038,277.5
2022-12-05T02:28:03,42.805,6.029,-0.03,0.004,-0.014,102.0,101.0,100.0,13.4,1505.2,325.3,-0.7,1.8,2471.128,13.29,0.03,277.6
2022-12-05T02:31:03,42.805,6.029,-0.049,0.008,-0.052,102.0,100.0,101.0,13.4,1505.2,329.0,-0.7,1.8,2471.181,13.29,0.049,279.3
2022-12-05T02:34:03,42.805,6.029,-0.043,0.025,-0.051,101.0,101.0,100.0,13.4,1505.2,331.2,-0.7,1.8,2471.127,13.29,0.049,300.2
2022-12-05T02:37:03,42.805,6.029,-0.011,0.005,-0.056,101.0,101.0,100.0,13.4,1505.2,327.9,-0.7,1.8,2471.151,13.29,0.012,294.4
2022-12-05T02:40:03,42.805,6.029,-0.046,0.006,-0.027,101.0,102.0,101.0,13.3,1505.2,324.9,-0.7,1.8,2471.182,13.29,0.046,277.4
2022-12-05T02:43:03,42.805,6.029,-0.016,0.006,-0.038,101.0,101.0,100.0,13.4,1505.2,334.8,-0.7,1.8,2471.134,13.29,0.017,290.6
2022-12-05T02:46:03,42.805,6.029,-0.031,0.021,-0.021,101.0,101.0,101.0,13.4,1505.2,326.5,-0.7,1.8,2471.159,13.29,0.037,304.1
2022-12-05T02:49:03,42.805,6.029,-0.025,0.031,-0.03,101.0,101.0,100.0,13.4,1505.2,319.0,-0.8,1.8,2471.118,13.29,0.039,321.1
2022-12-05T02:52:03,42.805,6.029,-0.031,0.034,-0.033,101.0,101.0,100.0,13.4,1505.2,334.9,-0.8,1.8,2471.127,13.29,0.046,317.6
2022-12-05T02:55:03,42.805,6.029,-0.054,0.007,-0.044,102.0,101.0,100.0,13.3,1505.2,315.9,-0.8,1.8,2471.161,13.29,0.054,277.4
2022-12-05T02:58:03,42.805,6.029,-0.043,-0.001,-0.054,101.0,102.0,100.0,13.3,1505.2,327.4,-0.8,1.8,2471.193,13.29,0.043,268.7
2022-12-05T03:04:03,42.805,6.029,-0.039,0.001,-0.043,101.0,101.0,100.0,13.4,1505.2,328.4,-0.8,1.8,2471.222,13.28,0.039,271.5
2022-12-05T03:07:03,42.805,6.029,-0.024,0.02,-0.033,100.0,101.0,101.0,13.3,1505.2,327.0,-0.7,1.8,2471.232,13.28,0.031,309.8
2022-12-05T03:10:03,42.805,6.029,-0.027,0.015,-0.012,101.0,102.0,100.0,13.4,1505.2,315.9,-0.8,1.8,2471.229,13.29,0.03,299.1
2022-12-05T03:13:03,42.805,6.029,-0.019,0.013,-0.015,101.0,99.0,101.0,13.4,1505.2,322.1,-0.7,1.8,2471.221,13.29,0.023,304.4
2022-12-05T03:16:03,42.805,6.029,-0.033,0.008,-0.045,101.0,100.0,100.0,13.3,1505.2,322.8,-0.8,1.8,2471.18,13.29,0.033,283.6
2022-12-05T03:19:04,42.805,6.029,-0.012,0.03,-0.034,102.0,99.0,99.0,13.3,1505.2,324.7,-0.8,1.8,2471.177,13.29,0.032,338.2
2022-12-05T03:22:03,42.805,6.029,-0.03,0.017,-0.055,100.0,100.0,101.0,13.4,1505.2,334.0,-0.7,1.8,2471.192,13.29,0.034,299.5
2022-12-05T03:25:03,42.805,6.029,-0.055,0.023,-0.068,100.0,103.0,101.0,13.3,1505.2,329.0,-0.7,1.8,2471.211,13.29,0.059,292.7
2022-12-05T03:28:03,42.805,6.029,-0.028,0.033,-0.02,100.0,100.0,100.0,13.4,1505.2,322.8,-0.8,1.8,2471.175,13.29,0.043,319.7
2022-12-05T03:31:03,42.805,6.029,-0.037,0.0,-0.086,101.0,101.0,99.0,13.3,1505.2,329.9,-0.7,1.8,2471.235,13.29,0.037,270.0
2022-12-05T03:34:03,42.805,6.029,-0.016,0.031,-0.011,103.0,101.0,101.0,13.4,1505.2,334.5,-0.8,1.8,2471.196,13.29,0.034,332.7
2022-12-05T03:37:03,42.805,6.029,-0.06,0.025,-0.049,101.0,101.0,100.0,13.4,1505.2,322.2,-0.8,1.8,2471.205,13.29,0.064,292.6
2022-12-05T03:40:03,42.805,6.029,-0.046,0.018,-0.039,100.0,101.0,100.0,13.4,1505.2,322.6,-0.8,1.8,2471.233,13.29,0.049,291.4
2022-12-05T03:43:03,42.805,6.029,-0.037,0.008,-0.041,103.0,102.0,100.0,13.4,1505.2,321.2,-0.8,1.8,2471.214,13.29,0.037,282.2
2022-12-05T03:46:03,42.805,6.029,-0.025,0.018,-0.02,101.0,102.0,100.0,13.3,1505.2,330.4,-0.8,1.8,2471.219,13.29,0.03,305.8
2022-12-05T03:49:03,42.805,6.029,-0.038,0.026,-0.045,101.0,102.0,99.0,13.4,1505.2,318.4,-0.7,1.8,2471.2,13.29,0.046,304.4
2022-12-05T03:52:03,42.805,6.029,-0.047,0.019,-0.024,101.0,101.0,100.0,13.4,1505.2,329.0,-0.8,1.8,2471.19,13.29,0.05,292.0
2022-12-05T03:55:03,42.805,6.029,-0.038,0.006,-0.04,101.0,101.0,100.0,13.3,1505.2,323.3,-0.8,1.8,2471.196,13.29,0.038,279.0
2022-12-05T03:58:03,42.805,6.029,-0.043,0.007,-0.063,101.0,102.0,100.0,13.3,1505.2,322.4,-0.8,1.8,2471.23,13.29,0.043,279.2
2022-12-05T04:04:03,42.805,6.029,-0.059,0.018,-0.018,101.0,101.0,100.0,13.3,1505.2,329.4,-0.8,1.8,2471.217,13.28,0.061,287.0
2022-12-05T04:07:03,42.805,6.029,-0.053,0.05,0.025,101.0,101.0,101.0,13.3,1505.2,328.0,-0.8,1.8,2471.235,13.28,0.072,313.3
2022-12-05T04:10:03,42.805,6.029,-0.054,-0.004,-0.055,101.0,100.0,100.0,13.4,1505.2,316.0,-0.8,1.8,2471.267,13.29,0.054,265.8
2022-12-05T04:13:03,42.805,6.029,-0.028,0.029,-0.026,100.0,101.0,100.0,13.3,1505.2,325.7,-0.8,1.8,2471.251,13.29,0.04,316.0
2022-12-05T04:16:03,42.805,6.029,0.017,0.011,-0.011,101.0,100.0,100.0,13.4,1505.2,322.5,-0.8,1.8,2471.226,13.29,0.02,57.1
2022-12-05T04:19:03,42.805,6.029,-0.056,0.039,-0.063,100.0,101.0,101.0,13.4,1505.2,336.3,-0.7,1.8,2471.218,13.29,0.068,304.9
2022-12-05T04:22:03,42.805,6.029,-0.062,0.035,-0.035,101.0,102.0,100.0,13.4,1505.2,323.7,-0.7,1.8,2471.245,13.29,0.071,299.4
2022-12-05T04:25:03,42.805,6.029,-0.055,0.008,-0.06,101.0,100.0,100.0,13.3,1505.2,322.3,-0.8,1.8,2471.231,13.29,0.055,278.3
2022-12-05T04:28:03,42.805,6.029,-0.063,0.025,-0.049,101.0,100.0,100.0,13.4,1505.2,326.9,-0.8,1.8,2471.27,13.29,0.067,291.6
2022-12-05T04:31:03,42.805,6.029,-0.039,0.013,-0.057,100.0,101.0,101.0,13.4,1505.2,322.0,-0.8,1.8,2471.231,13.29,0.041,288.4
2022-12-05T04:34:03,42.805,6.029,-0.029,0.02,-0.011,102.0,101.0,102.0,13.4,1505.2,329.0,-0.8,1.8,2471.193,13.29,0.035,304.6
2022-12-05T04:37:03,42.805,6.029,-0.031,0.016,-0.047,101.0,101.0,101.0,13.4,1505.2,326.5,-0.8,1.8,2471.242,13.29,0.034,297.3
2022-12-05T04:40:03,42.805,6.029,-0.063,0.033,-0.029,101.0,101.0,100.0,13.4,1505.2,325.8,-0.8,1.8,2471.234,13.29,0.071,297.6
2022-12-05T04:43:03,42.805,6.029,-0.041,0.018,-0.041,101.0,101.0,100.0,13.4,1505.2,331.1,-0.8,1.8,2471.244,13.29,0.044,293.7
2022-12-05T04:46:03,42.805,6.029,-0.007,0.027,0.008,101.0,101.0,99.0,13.4,1505.2,328.3,-0.7,1.8,2471.192,13.29,0.027,345.5
2022-12-05T04:49:03,42.805,6.029,-0.042,0.014,-0.033,101.0,101.0,100.0,13.3,1505.2,320.4,-0.8,1.8,2471.228,13.29,0.044,288.4
2022-12-05T04:52:03,42.805,6.029,-0.028,0.007,-0.025,101.0,102.0,100.0,13.4,1505.2,323.7,-0.7,1.8,2471.224,13.29,0.028,284.0
2022-12-05T04:55:03,42.805,6.029,-0.047,0.014,-0.039,101.0,101.0,100.0,13.4,1505.2,317.8,-0.7,1.8,2471.209,13.29,0.049,286.6
2022-12-05T04:58:03,42.805,6.029,-0.043,0.016,-0.024,101.0,100.0,101.0,13.3,1505.2,329.1,-0.8,1.8,2471.25,13.29,0.045,290.4
2022-12-05T05:04:03,42.805,6.029,-0.032,0.028,-0.027,102.0,101.0,101.0,13.4,1505.2,319.1,-0.7,1.8,2471.268,13.28,0.042,311.2
2022-12-05T05:07:03,42.805,6.029,-0.035,0.022,-0.034,101.0,101.0,100.0,13.4,1505.2,324.0,-0.8,1.8,2471.282,13.28,0.041,302.2
2022-12-05T05:10:03,42.805,6.029,-0.03,0.009,-0.018,101.0,101.0,101.0,13.3,1505.2,317.7,-0.8,1.8,2471.281,13.28,0.031,286.7
2022-12-05T05:13:03,42.805,6.029,-0.033,0.025,-0.053,101.0,100.0,101.0,13.4,1505.2,329.0,-0.7,1.8,2471.233,13.29,0.041,307.1
2022-12-05T05:16:03,42.805,6.029,-0.043,0.029,-0.044,101.0,100.0,101.0,13.4,1505.2,334.1,-0.8,1.8,2471.253,13.29,0.051,304.0
2022-12-05T05:19:03,42.805,6.029,-0.049,0.018,-0.021,101.0,102.0,100.0,13.4,1505.2,321.0,-0.8,1.8,2471.241,13.29,0.052,290.2
2022-12-05T05:22:03,42.805,6.029,-0.07,0.017,-0.041,101.0,101.0,101.0,13.4,1505.2,324.7,-0.8,1.8,2471.254,13.29,0.072,283.7
2022-12-05T05:25:03,42.805,6.029,-0.039,0.054,-0.015,103.0,99.0,99.0,13.4,1505.2,337.2,-0.8,1.8,2471.228,13.29,0.066,324.2
2022-12-05T05:28:03,42.805,6.029,-0.019,0.015,-0.045,101.0,100.0,100.0,13.4,1505.2,321.7,-0.8,1.8,2471.255,13.29,0.024,308.3
2022-12-05T05:31:03,42.805,6.029,-0.04,0.028,-0.048,101.0,100.0,101.0,13.3,1505.2,332.1,-0.7,1.8,2471.225,13.29,0.048,305.0
2022-12-05T05:34:03,42.805,6.029,-0.029,-0.01,-0.029,101.0,100.0,100.0,13.3,1505.2,317.3,-0.8,1.9,2471.22,13.29,0.03,251.0
2022-12-05T05:37:03,42.805,6.029,-0.053,0.017,-0.048,100.0,101.0,101.0,13.3,1505.2,323.3,-0.8,1.8,2471.206,13.29,0.055,287.8
2022-12-05T05:40:03,42.805,6.029,-0.019,0.016,-0.014,101.0,101.0,100.0,13.4,1505.2,317.8,-0.7,1.8,2471.25,13.29,0.024,310.1
2022-12-05T05:43:03,42.805,6.029,-0.039,0.014,-0.031,101.0,101.0,100.0,13.4,1505.2,330.3,-0.8,1.8,2471.255,13.29,0.041,289.7
2022-12-05T05:46:03,42.805,6.029,-0.03,0.012,-0.031,101.0,100.0,100.0,13.4,1505.2,321.6,-0.8,1.8,2471.243,13.29,0.032,291.8
2022-12-05T05:49:03,42.805,6.029,-0.069,0.001,-0.07,101.0,100.0,100.0,13.4,1505.2,319.1,-0.8,1.8,2471.224,13.29,0.069,270.8
2022-12-05T05:52:03,42.805,6.029,-0.011,-0.004,-0.05,101.0,101.0,101.0,13.4,1505.2,325.8,-0.8,1.8,2471.25,13.29,0.011,250.0
2022-12-05T05:55:03,42.805,6.029,-0.025,0.001,-0.041,101.0,101.0,100.0,13.4,1505.2,316.9,-0.7,1.8,2471.262,13.29,0.025,272.3
2022-12-05T05:58:03,42.805,6.029,-0.058,0.023,-0.051,101.0,101.0,100.0,13.4,1505.2,327.8,-0.8,1.8,2471.261,13.29,0.062,291.6
2022-12-05T06:04:03,42.805,6.029,-0.053,0.011,-0.038,100.0,102.0,101.0,13.3,1505.2,316.5,-0.8,1.8,2471.275,13.28,0.054,281.7
2022-12-05T06:07:03,42.805,6.029,-0.035,0.008,-0.045,101.0,101.0,101.0,13.4,1505.2,327.8,-0.8,1.8,2471.261,13.28,0.035,282.9
2022-12-05T06:10:03,42.805,6.029,-0.045,0.018,-0.04,101.0,101.0,100.0,13.4,1505.2,329.0,-0.8,1.8,2471.27,13.28,0.048,291.8
2022-12-05T06:13:03,42.805,6.029,-0.032,-0.004,-0.058,102.0,101.0,101.0,13.4,1505.2,334.1,-0.8,1.8,2471.267,13.28,0.032,262.9
2022-12-05T06:16:03,42.805,6.029,-0.039,0.003,-0.074,101.0,100.0,101.0,13.3,1505.2,317.2,-0.7,1.8,2471.246,13.29,0.039,274.4
2022-12-05T06:19:03,42.805,6.029,-0.026,0.015,-0.038,101.0,102.0,100.0,13.4,1505.2,330.6,-0.8,1.8,2471.252,13.29,0.03,300.0
2022-12-05T06:22:03,42.805,6.029,-0.032,0.025,-0.048,102.0,101.0,100.0,13.4,1505.2,336.3,-0.7,1.8,2471.285,13.29,0.04,308.0
2022-12-05T06:25:03,42.805,6.029,-0.024,-0.007,-0.042,101.0,100.0,100.0,13.4,1505.2,321.9,-0.8,1.8,2471.266,13.29,0.025,253.7
2022-12-05T06:28:03,42.805,6.029,-0.043,0.001,-0.065,101.0,102.0,100.0,13.4,1505.2,315.4,-0.8,1.8,2471.261,13.29,0.043,271.3
2022-12-05T06:31:03,42.805,6.029,-0.023,0.01,-0.02,103.0,99.0,103.0,13.3,1505.2,336.2,-0.7,1.8,2471.247,13.29,0.025,293.5
2022-12-05T06:34:03,42.805,6.029,-0.045,0.02,-0.054,102.0,101.0,100.0,13.3,1505.2,321.9,-0.8,1.8,2471.212,13.29,0.049,294.0
2022-12-05T06:37:03,42.805,6.029,-0.035,0.012,-0.041,103.0,101.0,100.0,13.4,1505.2,323.9,-0.8,1.8,2471.231,13.29,0.037,288.9
2022-12-05T06:40:03,42.805,6.029,-0.053,0.023,-0.034,101.0,101.0,101.0,13.4,1505.2,319.6,-0.8,1.8,2471.248,13.29,0.057,293.5
2022-12-05T06:43:03,42.805,6.029,-0.044,0.005,-0.06,101.0,101.0,101.0,13.4,1505.2,329.6,-0.8,1.8,2471.275,13.29,0.044,276.5
2022-12-05T06:46:03,42.805,6.029,-0.038,0.017,-0.04,101.0,101.0,101.0,13.3,1505.2,327.2,-0.8,1.8,2471.246,13.29,0.041,294.1
2022-12-05T06:49:03,42.805,6.029,-0.027,-0.006,-0.095,101.0,100.0,101.0,13.4,1505.2,328.6,-0.7,1.8,2471.268,13.29,0.027,257.5
2022-12-05T06:52:03,42.805,6.029,-0.044,-0.001,-0.045,101.0,101.0,101.0,13.4,1505.2,326.3,-0.8,1.8,2471.244,13.29,0.044,268.7
2022-12-05T06:55:03,42.805,6.029,-0.055,0.022,-0.047,101.0,101.0,100.0,13.3,1505.2,330.2,-0.8,1.8,2471.215,13.29,0.059,291.8
2022-12-05T06:58:03,42.805,6.029,-0.034,0.004,-0.06,103.0,103.0,100.0,13.4,1505.2,317.4,-0.7,1.8,2471.276,13.29,0.034,276.7
2022-12-05T07:04:03,42.805,6.029,-0.032,0.031,-0.02,101.0,102.0,100.0,13.4,1505.2,337.4,-0.8,1.8,2471.302,13.28,0.044,314.1
2022-12-05T07:07:03,42.805,6.029,-0.037,0.027,-0.031,100.0,100.0,101.0,13.4,1505.2,328.9,-0.7,1.8,2471.268,13.28,0.045,306.1
2022-12-05T07:10:03,42.805,6.029,-0.052,0.024,-0.052,102.0,102.0,100.0,13.4,1505.2,324.8,-0.8,1.8,2471.259,13.28,0.057,294.8
2022-12-05T07:13:03,42.805,6.029,-0.029,0.003,-0.035,101.0,100.0,100.0,13.4,1505.2,335.9,-0.7,1.8,2471.264,13.29,0.029,275.9
2022-12-05T07:16:03,42.805,6.029,-0.032,0.024,-0.004,101.0,101.0,101.0,13.3,1505.2,321.2,-0.8,1.8,2471.276,13.29,0.04,306.9
2022-12-05T07:19:03,42.805,6.029,-0.039,0.024,-0.032,101.0,103.0,100.0,13.4,1505.2,330.4,-0.8,1.8,2471.208,13.29,0.045,301.6
2022-12-05T07:22:03,42.805,6.029,-0.034,-0.011,-0.063,102.0,101.0,100.0,13.4,1505.2,330.1,-0.8,1.8,2471.232,13.29,0.035,252.1
2022-12-05T07:25:03,42.805,6.029,-0.04,-0.004,-0.02,101.0,101.0,101.0,13.3,1505.2,323.8,-0.8,1.8,2471.29,13.29,0.04,264.3
2022-12-05T07:28:03,42.805,6.029,-0.049,0.031,-0.042,101.0,102.0,101.0,13.3,1505.2,326.7,-0.8,1.8,2471.234,13.29,0.057,302.3
2022-12-05T07:31:03,42.805,6.029,-0.031,-0.014,-0.032,101.0,101.0,100.0,13.3,1505.2,319.6,-0.8,1.8,2471.259,13.29,0.034,245.7
2022-12-05T07:34:03,42.805,6.029,-0.026,0.006,-0.079,102.0,101.0,101.0,13.4,1505.2,322.0,-0.8,1.8,2471.235,13.29,0.026,283.0
2022-12-05T07:37:03,42.805,6.029,-0.05,0.025,-0.009,101.0,101.0,101.0,13.3,1505.2,333.0,-0.7,1.8,2471.224,13.29,0.055,296.6
2022-12-05T07:40:03,42.805,6.029,-0.019,0.014,-0.053,101.0,102.0,101.0,13.3,1505.2,336.5,-0.7,1.8,2471.23,13.29,0.023,306.4
2022-12-05T07:43:03,42.805,6.029,-0.04,0.024,-0.038,102.0,101.0,101.0,13.3,1505.2,329.9,-0.8,1.8,2471.25,13.29,0.046,301.0
2022-12-05T07:46:03,42.805,6.029,-0.044,-0.003,-0.078,102.0,100.0,100.0,13.3,1505.2,320.5,-0.7,1.8,2471.246,13.29,0.044,266.1
2022-12-05T07:49:03,42.805,6.029,-0.024,0.006,-0.031,103.0,99.0,101.0,13.4,1505.2,330.2,-0.7,1.8,2471.238,13.29,0.024,284.0
2022-12-05T07:52:03,42.805,6.029,-0.037,-0.011,-0.068,102.0,101.0,100.0,13.4,1505.2,326.8,-0.8,1.8,2471.233,13.29,0.038,253.4
2022-12-05T07:55:03,42.805,6.029,-0.03,0.008,-0.023,100.0,100.0,101.0,13.4,1505.2,323.8,-0.8,1.8,2471.209,13.29,0.031,284.9
2022-12-05T07:58:03,42.805,6.029,-0.057,0.03,-0.06,103.0,99.0,101.0,13.4,1505.2,335.9,-0.8,1.8,2471.213,13.29,0.064,297.8
2022-12-05T08:04:03,42.805,6.029,-0.065,0.021,-0.075,100.0,102.0,100.0,13.4,1505.2,322.3,-0.7,1.8,2471.271,13.28,0.068,287.9
2022-12-05T08:07:03,42.805,6.029,-0.046,0.025,-0.076,102.0,102.0,100.0,13.4,1505.2,328.1,-0.7,1.8,2471.26,13.28,0.052,298.5
2022-12-05T08:10:03,42.805,6.029,-0.028,0.006,-0.051,101.0,104.0,100.0,13.4,1505.2,327.9,-0.8,1.8,2471.248,13.28,0.028,282.1
2022-12-05T08:13:03,42.805,6.029,-0.029,0.006,-0.078,101.0,102.0,101.0,13.4,1505.2,332.8,-0.8,1.8,2471.278,13.28,0.029,281.7
2022-12-05T08:16:03,42.805,6.029,-0.019,0.0,-0.03,102.0,101.0,101.0,13.4,1505.2,334.9,-0.8,1.8,2471.242,13.29,0.019,270.0
2022-12-05T08:19:03,42.805,6.029,-0.024,0.016,-0.041,102.0,101.0,100.0,13.4,1505.2,324.7,-0.8,1.9,2471.228,13.29,0.028,303.7
2022-12-05T08:22:03,42.805,6.029,-0.051,-0.006,-0.049,102.0,101.0,100.0,13.4,1505.2,321.4,-0.8,1.8,2471.234,13.29,0.051,263.3
2022-12-05T08:25:03,42.805,6.029,-0.034,0.012,-0.033,101.0,102.0,100.0,13.3,1505.2,329.8,-0.8,1.8,2471.244,13.29,0.036,289.4
2022-12-05T08:28:03,42.805,6.029,-0.029,0.023,-0.029,100.0,101.0,102.0,13.4,1505.2,331.9,-0.8,1.8,2471.227,13.29,0.037,308.4
2022-12-05T08:31:03,42.805,6.029,-0.023,0.011,-0.046,102.0,101.0,100.0,13.4,1505.2,326.0,-0.8,1.8,2471.211,13.29,0.025,295.6
2022-12-05T08:34:03,42.805,6.029,-0.047,0.004,-0.067,101.0,101.0,101.0,13.3,1505.2,321.4,-0.8,1.8,2471.212,13.29,0.047,274.9
2022-12-05T08:37:03,42.805,6.029,-0.048,0.011,-0.025,101.0,101.0,100.0,13.4,1505.2,323.7,-0.8,1.8,2471.171,13.29,0.049,282.9
2022-12-05T08:40:03,42.805,6.029,-0.062,0.042,-0.062,103.0,100.0,101.0,13.4,1505.2,331.5,-0.8,1.8,2471.208,13.29,0.074,304.1
2022-12-05T08:43:03,42.805,6.029,-0.04,0.007,-0.031,101.0,101.0,101.0,13.3,1505.2,331.3,-0.7,1.8,2471.236,13.29,0.04,279.9
2022-12-05T08:46:03,42.805,6.029,-0.052,0.0,-0.065,101.0,101.0,101.0,13.3,1505.2,320.6,-0.7,1.8,2471.182,13.29,0.052,270.0
2022-12-05T08:49:03,42.805,6.029,-0.017,0.008,-0.012,102.0,100.0,100.0,13.4,1505.2,336.9,-0.8,1.8,2471.194,13.29,0.018,295.2
2022-12-05T08:52:03,42.805,6.029,-0.03,-0.017,-0.083,102.0,101.0,100.0,13.4,1505.2,329.9,-0.8,1.9,2471.219,13.29,0.034,240.5
2022-12-05T08:55:03,42.805,6.029,-0.029,0.003,-0.052,100.0,101.0,101.0,13.4,1505.2,322.9,-0.7,1.8,2471.25,13.29,0.029,275.9
2022-12-05T08:58:03,42.805,6.029,-0.033,-0.002,-0.07,100.0,101.0,102.0,13.3,1505.2,328.3,-0.7,1.8,2471.231,13.29,0.033,266.5
2022-12-05T09:01:03,42.805,6.029,-0.027,0.004,-0.065,102.0,100.0,100.0,13.4,1505.2,332.4,-0.7,1.8,2471.217,13.29,0.027,278.4
2022-12-05T09:04:03,42.805,6.029,-0.053,0.012,-0.071,101.0,101.0,100.0,13.4,1505.2,326.1,-0.7,1.8,2471.21,13.29,0.054,282.8
2022-12-05T09:07:03,42.805,6.029,-0.061,0.019,-0.062,101.0,101.0,100.0,13.3,1505.2,330.3,-0.8,1.9,2471.229,13.29,0.063,287.3
2022-12-05T09:10:03,42.805,6.029,-0.031,-0.012,-0.051,102.0,101.0,100.0,13.4,1505.2,320.6,-0.8,1.8,2471.204,13.29,0.033,248.8
2022-12-05T09:13:03,42.805,6.029,-0.045,0.0,-0.035,102.0,100.0,102.0,13.4,1505.2,317.8,-0.8,1.8,2471.211,13.29,0.045,270.0
2022-12-05T09:16:03,42.805,6.029,-0.065,0.008,-0.028,100.0,100.0,101.0,13.3,1505.2,329.7,-0.7,1.8,2471.222,13.29,0.065,277.0
2022-12-05T09:19:03,42.805,6.029,-0.052,-0.009,-0.068,101.0,101.0,100.0,13.3,1505.2,318.8,-0.7,1.8,2471.236,13.29,0.052,260.2
2022-12-05T09:22:03,42.805,6.029,-0.025,-0.005,-0.04,102.0,100.0,100.0,13.4,1505.2,322.0,-0.7,1.8,2471.196,13.29,0.025,258.7
2022-12-05T09:25:03,42.805,6.029,-0.03,0.031,-0.015,101.0,101.0,101.0,13.4,1505.2,334.8,-0.7,1.8,2471.224,13.29,0.043,315.9
2022-12-05T09:28:03,42.805,6.029,-0.063,0.03,-0.02,101.0,100.0,101.0,13.4,1505.2,327.9,-0.7,1.8,2471.176,13.29,0.069,295.5
2022-12-05T09:31:03,42.805,6.029,-0.034,0.032,-0.019,100.0,101.0,100.0,13.3,1505.2,336.1,-0.8,1.9,2471.229,13.29,0.046,313.3
2022-12-05T09:34:03,42.805,6.029,-0.044,0.013,-0.033,101.0,101.0,100.0,13.3,1505.2,329.7,-0.8,1.8,2471.225,13.29,0.045,286.5
2022-12-05T09:37:03,42.805,6.029,-0.03,0.002,-0.076,102.0,101.0,100.0,13.3,1505.2,323.9,-0.7,1.8,2471.201,13.29,0.03,273.8
2022-12-05T09:40:03,42.805,6.029,-0.024,0.025,-0.049,101.0,102.0,100.0,13.3,1505.2,324.0,-0.7,1.8,2471.204,13.29,0.034,316.2
2022-12-05T09:43:03,42.805,6.029,-0.061,0.023,-0.042,102.0,100.0,100.0,13.4,1505.2,323.5,-0.8,1.8,2471.199,13.29,0.065,290.7
2022-12-05T09:46:03,42.805,6.029,-0.05,0.021,-0.025,102.0,101.0,99.0,13.4,1505.2,326.5,-0.8,1.8,2471.183,13.29,0.054,292.8
2022-12-05T09:49:03,42.805,6.029,-0.033,-0.006,-0.057,102.0,100.0,100.0,13.4,1505.2,316.5,-0.8,1.8,2471.212,13.29,0.033,259.7